Weather observations for the past three days for
Stuart Powell Field Airport
Imperial (Metric)
Date Time (edt) Wind (mph) Vis. (mi.) Weather Sky Cond. Temperature (ºF) Relative Humidity Wind Chill (°F) Heat Index (°F) Pressure Precipitation (in)
Air Dwpt 6 hour altimeter (in) sea level (mb) 1 hr 3 hr 6 hr
Max. Min.
10 11:10 W 8 10.00 Mostly Cloudy BKN110 69.8 53.6 57% 30.02 0.0
10 10:50 W 6 10.00 Overcast OVC110 66.2 51.8 60% 30.03 0.0
10 10:30 W 5 10.00 Overcast OVC100 66.2 51.8 60% 30.02 0.0
10 10:10 SW 6 10.00 Overcast OVC100 68 53.6 60% 30.01 0.0
10 09:50 SW 7 10.00 Mostly Cloudy BKN100 68 53.6 60% 30 0.0
10 09:30 S 7 10.00 Fair CLR 66.2 53.6 64% 30 0.0
10 09:10 SW 8 10.00 Fair CLR 64.4 53.6 68% 30 0.0
10 08:50 SW 7 10.00 Fair CLR 62.6 53.6 73% 30 0.0
10 08:30 S 6 10.00 Fair CLR 62.6 51.8 68% 29.99 0.0
10 08:10 S 6 10.00 Fair CLR 60.8 51.8 72% 29.99 0.0
10 07:50 S 5 10.00 Fair CLR 59 51.8 77% 29.99 0.0
10 07:30 S 5 10.00 Fair CLR 55.4 50 82% 29.99 0.0
10 07:10 SW 5 10.00 Fair CLR 53.6 50 88% 29.98 0.0
10 06:50 S 6 10.00 Fair CLR 53.6 50 88% 29.97 0.0
10 06:30 S 6 10.00 Fair CLR 53.6 48.2 82% 29.96 0.0
10 06:10 S 6 10.00 Fair CLR 53.6 48.2 82% 29.96 0.0
10 05:50 S 5 10.00 Fair CLR 53.6 48.2 82% 29.95 0.0
10 05:30 S 6 10.00 Fair CLR 53.6 48.2 82% 29.95 0.0
10 05:10 S 5 10.00 Partly Cloudy SCT060 53.6 48.2 82% 29.95 0.0
10 04:50 S 3 10.00 Fair CLR 53.6 48.2 82% 29.95 0.0
10 04:30 S 6 10.00 Fair CLR 53.6 48.2 82% 29.94 0.0
10 04:10 S 8 10.00 Fair CLR 53.6 48.2 82% 29.93 0.0
10 03:50 S 5 10.00 Fair CLR 53.6 48.2 82% 29.92 0.0
10 03:30 SW 3 10.00 Fair CLR 53.6 48.2 82% 29.92 0.0
10 03:10 S 5 10.00 Fair CLR 53.6 48.2 82% 29.92 0.0
10 02:50 SW 5 10.00 Fair CLR 53.6 48.2 82% 29.92 0.0
10 02:30 Calm 10.00 Fair CLR 55.4 48.2 77% 29.93 0.0
10 02:10 S 5 10.00 Fair CLR 53.6 48.2 82% 29.93 0.0
10 01:50 SW 5 10.00 Fair CLR 55.4 48.2 77% 29.92 0.0
10 01:30 SW 5 10.00 Fair CLR 55.4 48.2 77% 29.92 0.0
10 01:10 SW 5 10.00 Fair CLR 55.4 48.2 77% 29.92 0.0
10 00:50 SW 5 10.00 Fair CLR 57.2 50 77% 29.92 0.0
10 00:30 S 5 10.00 Fair CLR 57.2 50 77% 29.92 0.0
10 00:10 S 5 10.00 Fair CLR 57.2 50 77% 29.92 0.0
09 23:50 SW 3 10.00 Fair CLR 59 50 72% 29.93 0.0
09 23:30 SW 3 10.00 Fair CLR 57.2 50 77% 29.93 0.0
09 23:10 Calm 10.00 Fair CLR 59 50 72% 29.93 0.0
09 22:50 S 5 10.00 Fair CLR 59 50 72% 29.93 0.0
09 22:30 S 3 10.00 Fair CLR 60.8 50 68% 29.92 0.0
09 22:10 S 5 10.00 Fair CLR 60.8 50 68% 29.91 0.0
09 21:50 S 3 10.00 Fair CLR 60.8 50 68% 29.9 0.0
09 21:30 SW 3 10.00 Fair CLR 62.6 50 64% 29.89 0.0
09 21:10 S 3 10.00 Fair CLR 62.6 50 64% 29.88 0.0
09 20:50 S 3 10.00 Fair CLR 64.4 50 60% 29.87 0.0
09 20:30 Calm 10.00 Fair CLR 64.4 50 60% 29.86 0.0
09 20:10 SW 3 10.00 Fair CLR 68 50 53% 29.86 0.0
09 19:50 SW 5 10.00 Fair CLR 69.8 50 50% 29.86 0.0
09 19:30 SW 5 10.00 Fair CLR 71.6 51.8 50% 29.86 0.0
09 19:10 SW 6 10.00 Fair CLR 71.6 51.8 50% 29.85 0.0
09 18:50 SW 7 10.00 Fair CLR 71.6 51.8 50% 29.85 0.0
09 18:30 SW 8 10.00 Fair CLR 73.4 51.8 47% 29.85 0.0
09 18:10 SW 7 10.00 Fair CLR 73.4 51.8 47% 29.85 0.0
09 17:50 SW 5 10.00 Fair CLR 73.4 53.6 50% 29.85 0.0
09 17:30 NW 6 10.00 Partly Cloudy SCT046 73.4 50 44% 29.85 0.0
09 17:10 W 6 10.00 Partly Cloudy SCT046 73.4 53.6 50% 29.85 0.0
09 16:50 W 6 10.00 Fair CLR 73.4 51.8 47% 29.86 0.0
09 16:30 NW 6 10.00 Partly Cloudy SCT043 SCT050 71.6 51.8 50% 29.86 0.0
09 16:10 W 7 10.00 Partly Cloudy SCT043 SCT050 71.6 51.8 50% 29.86 0.0
09 15:50 SW 6 10.00 Partly Cloudy SCT039 SCT047 71.6 51.8 50% 29.87 0.0
09 15:30 W 7 10.00 Mostly Cloudy BKN037 BKN047 69.8 51.8 53% 29.87 0.0
09 15:10 Calm 10.00 Partly Cloudy SCT035 SCT042 69.8 53.6 57% 29.87 0.0
09 14:50 W 7 10.00 Mostly Cloudy SCT033 BKN042 68 51.8 56% 29.87 0.0
09 14:30 SW 6 10.00 Mostly Cloudy SCT029 BKN036 BKN045 68 53.6 60% 29.88 0.0
09 14:10 W 8 10.00 Mostly Cloudy BKN029 BKN034 BKN043 68 51.8 56% 29.87 0.0
09 13:50 W 7 10.00 Overcast SCT025 OVC033 66.2 53.6 64% 29.88 0.0
09 13:30 W 8 10.00 Overcast BKN020 BKN025 OVC032 64.4 53.6 68% 29.88 0.0
09 13:10 SW 8 10.00 Overcast BKN018 OVC026 66.2 55.4 68% 29.88 0.0
09 12:50 SW 9 10.00 Overcast OVC018 62.6 53.6 73% 29.87 0.0
09 12:30 S 6 10.00 Overcast BKN014 OVC030 64.4 53.6 68% 29.86 0.0
09 12:10 SW 10 10.00 Overcast SCT012 BKN021 OVC030 62.6 53.6 73% 29.88 0.0
09 11:50 SW 6 10.00 Overcast BKN010 OVC021 60.8 53.6 77% 29.88 0.0
09 11:10 SW 8 7.00 Rain SCT012 BKN032 OVC046 57.2 53.6 88% 29.87 0.0
09 10:50 SW 9 10.00 Overcast SCT012 BKN035 OVC049 55.4 51.8 88% 29.86 0.0
09 10:30 SW 7 10.00 Overcast SCT041 OVC049 55.4 51.8 88% 29.86 0.0
09 10:10 SW 6 7.00 Light Drizzle SCT038 OVC043 53.6 51.8 94% 29.86 0.0
09 09:50 SW 5 10.00 Drizzle SCT041 BKN048 OVC070 53.6 51.8 94% 29.86 0.0
09 09:30 SW 6 10.00 Light Drizzle SCT050 SCT060 OVC070 53.6 51.8 94% 29.85 0.0
09 09:10 SW 8 7.00 Light Rain SCT031 SCT037 OVC070 55.4 50 82% 29.85 0.0
09 08:50 SW 8 10.00 Light Drizzle BKN032 BKN041 OVC070 55.4 48.2 77% 29.85 0.0
09 08:30 SW 7 10.00 Overcast SCT032 BKN050 OVC090 55.4 48.2 77% 29.85 0.0
09 08:10 SW 9 10.00 Overcast OVC100 55.4 46.4 72% 29.83 0.0
09 07:50 SW 6 10.00 Overcast OVC100 53.6 46.4 77% 29.82 0.0
09 07:30 S 5 10.00 Mostly Cloudy SCT060 BKN110 53.6 46.4 77% 29.82 0.0
09 07:10 SW 5 10.00 Mostly Cloudy SCT060 BKN120 53.6 46.4 77% 29.82 0.0
09 06:50 SW 8 10.00 Mostly Cloudy SCT060 BKN120 53.6 46.4 77% 29.82 0.0
09 06:30 S 5 10.00 Partly Cloudy SCT120 53.6 44.6 72% 29.81 0.0
09 06:10 SW 6 10.00 Fair CLR 53.6 44.6 72% 29.81 0.0
09 05:50 SW 6 10.00 Partly Cloudy SCT120 53.6 44.6 72% 29.82 0.0
09 05:30 SW 8 10.00 Fair CLR 53.6 44.6 72% 29.83 0.0
09 05:10 S 7 10.00 Fair CLR 53.6 44.6 72% 29.83 0.0
09 04:50 SW 6 10.00 Fair CLR 53.6 44.6 72% 29.84 0.0
09 04:30 SW 5 10.00 Fair CLR 55.4 42.8 63% 29.84 0.0
09 04:10 S 5 10.00 Fair CLR 55.4 42.8 63% 29.84 0.0
09 03:50 Calm 10.00 Fair CLR 55.4 42.8 63% 29.84 0.0
09 03:30 Calm 10.00 Fair CLR 55.4 42.8 63% 29.84 0.0
09 03:10 SW 5 10.00 Fair CLR 55.4 42.8 63% 29.84 0.0
09 02:50 S 3 10.00 Fair CLR 55.4 42.8 63% 29.84 0.0
09 02:30 S 6 10.00 Fair CLR 55.4 42.8 63% 29.85 0.0
09 02:10 S 6 10.00 Fair CLR 55.4 41 59% 29.85 0.0
09 01:50 S 7 10.00 Fair CLR 55.4 41 59% 29.85 0.0
09 01:30 S 7 10.00 Fair CLR 55.4 39.2 55% 29.86 0.0
09 01:10 SW 5 10.00 Fair CLR 55.4 39.2 55% 29.85 0.0
09 00:50 SW 5 10.00 Fair CLR 53.6 41 63% 29.85 0.0
09 00:30 S 5 10.00 Fair CLR 55.4 39.2 55% 29.85 0.0
09 00:10 S 5 10.00 Fair CLR 55.4 39.2 55% 29.86 0.0
08 23:50 S 5 10.00 Fair CLR 53.6 39.2 58% 29.86 0.0
08 23:30 Calm 10.00 Fair CLR 55.4 41 59% 29.86 0.0
08 23:10 S 3 10.00 Fair CLR 55.4 37.4 51% 29.86 0.0
08 22:50 S 5 10.00 Fair CLR 55.4 39.2 55% 29.87 0.0
08 22:30 S 3 10.00 Partly Cloudy SCT120 57.2 37.4 48% 29.88 0.0
08 22:10 S 3 10.00 Partly Cloudy SCT120 57.2 37.4 48% 29.88 0.0
08 21:50 S 5 10.00 Fair CLR 59 37.4 45% 29.88 0.0
08 21:30 SW 5 10.00 Fair CLR 59 37.4 45% 29.88 0.0
08 21:10 SW 3 10.00 Fair CLR 59 37.4 45% 29.88 0.0
08 20:50 S 3 10.00 Fair CLR 60.8 37.4 42% 29.87 0.0
08 20:30 Calm 10.00 Fair CLR 62.6 35.6 37% 29.88 0.0
08 20:10 SW 3 10.00 Fair CLR 64.4 35.6 34% 29.88 0.0
08 19:50 SW 7 10.00 Fair CLR 66.2 35.6 32% 29.89 0.0
08 19:30 SW 9 10.00 Fair CLR 68 35.6 30% 29.89 0.0
08 19:10 SW 8 10.00 Fair CLR 68 33.8 28% 29.9 0.0
08 18:50 SW 10 10.00 Fair CLR 69.8 35.6 29% 29.9 0.0
08 18:30 SW 9 10.00 Fair CLR 69.8 35.6 29% 29.9 0.0
08 18:10 SW 12 10.00 Fair CLR 71.6 35.6 27% 29.9 0.0
08 17:50 SW 8 G 12 10.00 Fair CLR 71.6 35.6 27% 29.9 0.0
08 17:30 SW 10 10.00 Fair CLR 71.6 35.6 27% 29.88 0.0
08 17:10 SW 9 10.00 Fair CLR 71.6 37.4 29% 29.9 0.0
08 16:50 SW 9 G 16 10.00 Fair CLR 71.6 37.4 29% 29.91 0.0
08 16:30 SW 9 10.00 Fair CLR 71.6 35.6 27% 29.92 0.0
08 16:10 SW 8 G 18 10.00 Fair CLR 69.8 37.4 31% 29.92 0.0
08 15:50 SW 8 10.00 Fair CLR 69.8 35.6 29% 29.93 0.0
08 15:30 S 8 G 17 10.00 Fair CLR 69.8 35.6 29% 29.93 0.0
08 15:10 S 9 G 17 10.00 Fair CLR 69.8 35.6 29% 29.94 0.0
08 14:30 S 10 10.00 Fair CLR 68 37.4 33% 29.95 0.0
08 14:10 S 8 10.00 Fair CLR 69.8 37.4 31% 29.97 0.0
08 13:50 S 10 10.00 Fair CLR 68 35.6 30% 29.98 0.0
08 13:10 S 9 10.00 Fair CLR 68 37.4 33% 30 0.0
08 12:50 S 8 10.00 Fair CLR 66.2 37.4 35% 30.02 0.0
08 12:30 S 6 10.00 Fair CLR 64.4 37.4 37% 30.03 0.0
08 12:10 S 7 10.00 Fair CLR 64.4 39.2 40% 30.03 0.0
08 11:50 S 8 10.00 Fair CLR 64.4 39.2 40% 30.05 0.0
08 11:30 SW 5 10.00 Fair CLR 62.6 37.4 39% 30.05 0.0
08 11:10 SW 8 10.00 Fair CLR 62.6 35.6 37% 30.05 0.0
08 10:50 S 6 10.00 Fair CLR 62.6 39.2 42% 30.06 0.0
08 10:30 SW 7 10.00 Fair CLR 60.8 37.4 42% 30.06 0.0
08 10:10 SW 7 10.00 Fair CLR 60.8 37.4 42% 30.06 0.0
08 09:50 SW 8 10.00 Fair CLR 59 37.4 45% 30.06 0.0
08 09:30 SW 8 10.00 Fair CLR 55.4 35.6 47% 30.06 0.0
08 09:10 SW 8 10.00 Fair CLR 53.6 37.4 54% 30.06 0.0
08 08:50 S 5 10.00 Fair CLR 51.8 41 67% 30.06 0.0
08 08:30 Calm 10.00 Fair CLR 48.2 39.2 71% 30.05 0.0
08 08:10 S 5 10.00 Fair CLR 46.4 37.4 71% 45 30.05 0.0
08 07:50 Calm 10.00 Fair CLR 42.8 35.6 76% 30.05 0.0
08 07:30 Calm 10.00 Fair CLR 39.2 35.6 87% 30.05 0.0
08 07:10 Calm 10.00 Fair CLR 35.6 33.8 93% 30.03 0.0
08 06:50 Calm 10.00 Fair CLR 35.6 33.8 93% 30.03 0.0
08 06:30 Calm 10.00 Fair CLR 35.6 33.8 93% 30.02 0.0
08 06:10 Calm 10.00 Fair CLR 35.6 33.8 93% 30.02 0.0
08 05:50 Calm 10.00 Fair CLR 35.6 33.8 93% 30.02 0.0
08 05:30 SW 3 10.00 Fair CLR 35.6 33.8 93% 30.02 0.0
08 05:10 Calm 10.00 Fair CLR 35.6 33.8 93% 30.03 0.0
08 04:50 Calm 10.00 Fair CLR 35.6 33.8 93% 30.03 0.0
08 04:30 Calm 10.00 Fair CLR 37.4 33.8 87% 30.03 0.0
08 04:10 Calm 10.00 Fair CLR 37.4 33.8 87% 30.03 0.0
08 03:50 S 3 10.00 Fair CLR 37.4 33.8 87% 30.02 0.0
08 03:30 Calm 10.00 Fair CLR 37.4 33.8 87% 30.03 0.0
08 03:10 Calm 10.00 Fair CLR 37.4 33.8 87% 30.03 0.0
08 02:50 Calm 10.00 Fair CLR 39.2 33.8 81% 30.03 0.0
08 02:30 Calm 10.00 Fair CLR 37.4 33.8 87% 30.03 0.0
08 02:10 Calm 10.00 Fair CLR 39.2 35.6 87% 30.03 0.0
08 01:50 Calm 10.00 Fair CLR 39.2 35.6 87% 30.03 0.0
08 01:30 Calm 10.00 Fair CLR 39.2 35.6 87% 30.03 0.0
08 01:10 Calm 10.00 Fair CLR 41 35.6 81% 30.04 0.0
08 00:50 Calm 10.00 Fair CLR 41 35.6 81% 30.04 0.0
08 00:30 Calm 10.00 Fair CLR 41 35.6 81% 30.03 0.0
08 00:10 Calm 10.00 Fair CLR 41 35.6 81% 30.03 0.0
07 23:50 Calm 10.00 Fair CLR 41 35.6 81% 30.03 0.0
07 23:30 Calm 10.00 Fair CLR 42.8 35.6 76% 30.03 0.0
07 23:10 Calm 10.00 Fair CLR 42.8 37.4 81% 30.03 0.0
07 22:50 Calm 10.00 Fair CLR 42.8 35.6 76% 30.03 0.0
07 22:30 Calm 10.00 Fair CLR 44.6 37.4 76% 30.03 0.0
07 22:10 Calm 10.00 Fair CLR 44.6 35.6 71% 30.02 0.0
07 21:50 Calm 10.00 Fair CLR 46.4 35.6 66% 30.02 0.0
07 21:30 Calm 10.00 Fair CLR 50 35.6 58% 30 0.0
07 21:10 Calm 10.00 Fair CLR 48.2 35.6 62% 30 0.0
07 20:50 Calm 10.00 Fair CLR 50 35.6 58% 29.99 0.0
07 20:30 Calm 10.00 Fair CLR 55.4 32 41% 29.99 0.0
07 20:10 NW 3 10.00 Fair CLR 57.2 30.2 36% 29.98 0.0
07 19:50 NW 5 10.00 Fair CLR 59 30.2 34% 29.98 0.0
07 19:10 NW 6 10.00 Fair CLR 60.8 28.4 29% 29.98 0.0
07 18:50 NW 9 10.00 Fair CLR 60.8 28.4 29% 29.98 0.0
07 18:30 N 8 10.00 Fair CLR 62.6 28.4 27% 29.98 0.0
07 17:50 W 7 10.00 Fair CLR 62.6 28.4 27% 29.98 0.0
07 17:30 NW 10 G 16 10.00 Fair CLR 62.6 30.2 30% 29.97 0.0
07 17:10 W 13 G 17 10.00 Fair CLR 62.6 30.2 30% 29.97 0.0
07 16:50 N 7 10.00 Fair CLR 62.6 32 32% 29.97 0.0
07 16:30 N 8 10.00 Fair CLR 62.6 32 32% 29.97 0.0
07 16:10 N 9 G 16 10.00 Fair CLR 62.6 32 32% 29.97 0.0
07 15:50 NW 9 10.00 Fair CLR 62.6 33.8 34% 29.97 0.0
07 15:30 NW 9 G 17 10.00 Fair CLR 60.8 32 34% 29.98 0.0
07 15:10 NW 12 10.00 Partly Cloudy SCT060 60.8 33.8 36% 29.98 0.0
07 14:50 N 10 G 18 10.00 Partly Cloudy SCT065 60.8 32 34% 29.98 0.0
07 14:30 W 12 10.00 Fair CLR 60.8 32 34% 29.98 0.0
07 14:10 W 5 10.00 Fair CLR 60.8 32 34% 29.98 0.0
07 13:50 NW 6 10.00 Fair CLR 60.8 32 34% 29.98 0.0
07 13:30 N 10 10.00 Partly Cloudy SCT050 60.8 35.6 39% 29.99 0.0
07 13:10 N 12 10.00 Partly Cloudy SCT050 59 35.6 42% 30 0.0
07 12:50 NE 5 10.00 Partly Cloudy SCT050 59 37.4 45% 30.01 0.0
07 12:30 N 9 10.00 Fair CLR 57.2 35.6 44% 30.01 0.0
07 12:10 NW 8 10.00 Fair CLR 59 35.6 42% 30.02 0.0
07 11:50 N 10 G 16 10.00 Fair CLR 59 35.6 42% 30.02 0.0
Date Time (edt) Wind (mph) Vis. (mi.) Weather Sky Cond. Air Dwpt Max. Min. Relative Humidity Wind Chill (°F) Heat Index (°F) altimeter (in) sea level (mb) 1 hr 3 hr 6 hr
6 hour
Temperature (ºF) Pressure Precipitation (in)